Content
SEND FEEDBACK

Daily
Averages
Monthly
Summary
Thailand

PHUKET, THAILAND


Home > Asia > Thailand
Elevation: 33 feet     Latitude: 08 07N     Longitude: 098 19E

WEATHER
 
SELECT A DAY
Number of Records: 227,625;   Date Range: 7/1/96 - 7/29/14
 
SHARE

PRINT THIS DATA

[ ← Previous Day ]
WEATHER ALMANAC - APRIL 25, 2014
[ Next Day → ]
[ °C ]   °F
Weather ElementAverageHighLow
Temperature84.9 °F95 °F (1:00 pm)78.8 °F (12:30 am)
Dewpoint76.3 °F79 °F (10:00 am)73.4 °F (12:00 pm)
Humidity75.8 %94 % (2:30 am)46 % (1:00 pm)
Barometer29.81 in29.89 in (10:00 am)29.74 in (4:00 am)
Wind Speed4.2 mph12.7 mph (2:30 pm)
Weather ElementAverage
Visibility5.9 mi
Wind DirectionSSE (154.7 °)

Weather ElementTotal
Precipitation---
Cooling Degree Days21.9 (Base 65)
Growing Degree Days36.9 (Base 50)
Averaged from 52 records on April 25, 2014
WEATHER CONDITIONS BREAKOUT
WIND DIRECTION BREAKOUT
WEATHER BY HOUR - APRIL 25, 2014
[ °C ]   °F
Local TimeTemperatureDewpointHumidityBarometerVisibilityWind DirectionWind SpeedGust SpeedPrecipitationEventsConditions
12:30 AM78.8 °F75.2 °F89 %29.83 in6.2 miCalmScattered Clouds
1:00 AM81.0 °F78.0 °F88 %29.78 in6.0 miCalmScattered Clouds
1:00 AM78.8 °F75.2 °F89 %29.83 in6.2 miCalmScattered Clouds
1:30 AM78.8 °F75.2 °F89 %29.80 in6.2 miCalmScattered Clouds
2:30 AM78.8 °F77.0 °F94 %29.77 in6.2 miCalmScattered Clouds
3:00 AM78.8 °F77.0 °F94 %29.77 in6.2 miCalmScattered Clouds
3:30 AM78.8 °F77.0 °F94 %29.77 in6.2 miCalmScattered Clouds
4:00 AM81.0 °F78.0 °F88 %29.74 in6.0 miCalmScattered Clouds
4:00 AM78.8 °F75.2 °F89 %29.77 in6.2 miCalmScattered Clouds
4:30 AM78.8 °F75.2 °F89 %29.77 in6.2 miCalmScattered Clouds
5:00 AM78.8 °F75.2 °F89 %29.77 in6.2 miCalmScattered Clouds
5:30 AM78.8 °F75.2 °F89 %29.80 in6.2 miCalmScattered Clouds
6:00 AM78.8 °F75.2 °F89 %29.80 in6.2 miCalmScattered Clouds
6:30 AM78.8 °F75.2 °F89 %29.80 in6.2 miCalmScattered Clouds
7:00 AM80.0 °F78.0 °F93 %29.77 in6.0 miCalmScattered Clouds
7:00 AM80.6 °F77.0 °F89 %29.83 in6.2 miCalmScattered Clouds
7:30 AM80.6 °F78.8 °F94 %29.83 in6.2 miCalmScattered Clouds
8:00 AM84.2 °F78.8 °F84 %29.86 in6.2 miCalmScattered Clouds
8:30 AM86.0 °F77.0 °F74 %29.86 in5.6 miVariable2.3 mphMostly Cloudy
9:00 AM86.0 °F77.0 °F74 %29.86 in5.6 miNW (320°)3.5 mphMostly Cloudy
9:30 AM87.8 °F75.2 °F66 %29.86 in5.6 miWNW (300°)4.6 mphMostly Cloudy
10:00 AM86.0 °F79.0 °F74 %29.83 in6.0 miCalmMist
10:00 AM86.0 °F75.2 °F70 %29.89 in5.6 miWSW (250°)4.6 mphMostly Cloudy
10:30 AM89.6 °F75.2 °F62 %29.89 in5.6 miWest (270°)5.8 mphMostly Cloudy
11:00 AM91.4 °F77.0 °F63 %29.86 in6.2 miWest (280°)6.9 mphMostly Cloudy
11:30 AM91.4 °F75.2 °F59 %29.86 in6.2 miWest (280°)9.2 mphScattered Clouds
12:00 PM93.2 °F73.4 °F52 %29.86 in6.2 miWest (270°)10.4 mphMostly Cloudy
12:30 PM91.4 °F73.4 °F55 %29.86 in6.2 miWest (260°)10.4 mphMostly Cloudy
1:00 PM95.0 °F76.0 °F46 %29.81 in6.0 miNW (320°)6.9 mphScattered Clouds
1:00 PM91.4 °F73.4 °F55 %29.83 in6.2 miWest (270°)11.5 mphScattered Clouds
1:30 PM91.4 °F73.4 °F55 %29.83 in6.2 miWest (260°)10.4 mphScattered Clouds
2:30 PM89.6 °F75.2 °F62 %29.77 in6.2 miWest (270°)12.7 mphMostly Cloudy
3:00 PM89.6 °F75.2 °F62 %29.77 in6.2 miWest (260°)12.7 mphMostly Cloudy
3:30 PM91.4 °F75.2 °F59 %29.77 in6.2 miWest (270°)11.5 mphMostly Cloudy
4:00 PM91.0 °F78.0 °F59 %29.74 in6.0 miWNW (300°)11.5 mphScattered Clouds
4:30 PM89.6 °F75.2 °F62 %29.77 in6.2 miWest (280°)10.4 mphMostly Cloudy
5:00 PM89.6 °F77.0 °F66 %29.77 in6.2 miWest (260°)9.2 mphMostly Cloudy
5:30 PM87.8 °F75.2 °F66 %29.77 in6.2 miWest (270°)9.2 mphMostly Cloudy
6:00 PM87.8 °F77.0 °F70 %29.77 in6.2 miWest (260°)10.4 mphMostly Cloudy
6:30 PM87.8 °F75.2 °F66 %29.77 in6.2 miWest (260°)10.4 mphMostly Cloudy
7:00 PM88.0 °F79.0 °F68 %29.74 in6.0 miWNW (290°)5.8 mphScattered Clouds
7:00 PM86.0 °F75.2 °F70 %29.77 in5.0 miWNW (290°)8.1 mphMostly Cloudy
7:30 PM86.0 °F77.0 °F74 %29.77 in5.0 miWest (280°)8.1 mphMostly Cloudy
8:00 PM86.0 °F77.0 °F74 %29.80 in5.0 miWest (280°)5.8 mphMostly Cloudy
8:30 PM84.2 °F77.0 °F79 %29.83 in5.0 miWNW (300°)3.5 mphMostly Cloudy
9:00 PM84.2 °F77.0 °F79 %29.83 in5.0 miNW (320°)4.6 mphMostly Cloudy
9:30 PM84.2 °F77.0 °F79 %29.86 in5.0 miCalmMostly Cloudy
10:00 PM83.0 °F78.0 °F82 %29.81 in6.0 miCalmMist
10:00 PM82.4 °F77.0 °F84 %29.86 in5.0 miCalmMostly Cloudy
10:30 PM82.4 °F77.0 °F84 %29.86 in5.0 miCalmMostly Cloudy
11:00 PM82.4 °F77.0 °F84 %29.86 in5.0 miCalmMostly Cloudy
11:30 PM80.6 °F77.0 °F89 %29.86 in5.0 miCalmMostly Cloudy
Hourly data recorded from VTSP, located miles away from Phuket, Thailand







STORIES FROM OUR PARTNERS